This is the latest recevied weather packets stored in our database for station/object K7CTM. If no packets are shown the sender has not sent any weather packets the latest 10 day(s).
| Time | Temp. | Humidity | Pressure | Rain* | Wind** | Luminosity | Snow |
|---|---|---|---|---|---|---|---|
| 1778145664 | 10.56° C | 75% | 1020.6 hPa | 0 mm | - | 0 W/m² | - |
| 1778145361 | 10° C | 80% | 1020.5 hPa | 0 mm | - | 0 W/m² | - |
| 1778145057 | 10° C | 85% | 1020.8 hPa | 1.27 mm | - | 0 W/m² | - |
| 1778144752 | 10° C | 83% | 1021.3 hPa | 1.27 mm | - | 0 W/m² | - |
| 1778144450 | 10.56° C | 82% | 1021.4 hPa | 1.27 mm | - | 0 W/m² | - |
| 1778144147 | 10° C | 86% | 1021.4 hPa | 0 mm | - | 0 W/m² | - |
| 1778143843 | 10° C | 85% | 1021.6 hPa | 0 mm | - | 0 W/m² | - |
| 1778143540 | 10° C | 85% | 1021.6 hPa | 0 mm | - | 0 W/m² | - |
| 1778143237 | 10° C | 86% | 1021.6 hPa | 0 mm | - | 0 W/m² | - |
| 1778142933 | 10° C | 87% | 1021.9 hPa | 0 mm | - | 0 W/m² | - |
| 1778142631 | 10° C | 87% | 1021.8 hPa | 0 mm | - | 0 W/m² | - |
| 1778142326 | 9.44° C | 87% | 1021.8 hPa | 0 mm | - | 0 W/m² | - |
| 1778142023 | 9.44° C | 87% | 1021.9 hPa | 0 mm | - | 0 W/m² | - |
| 1778141719 | 9.44° C | 87% | 1021.8 hPa | 1.78 mm | - | 0 W/m² | - |
| 1778141417 | 9.44° C | 87% | 1022.1 hPa | 1.78 mm | - | 0 W/m² | - |
| 1778141112 | 10° C | 87% | 1022 hPa | 0 mm | - | 0 W/m² | - |
| 1778140809 | 10° C | 85% | 1022 hPa | 0 mm | - | 0 W/m² | - |
| 1778140504 | 10° C | 86% | 1021.6 hPa | 0 mm | - | 0 W/m² | - |
| 1778140201 | 10° C | 86% | 1021.5 hPa | 1.27 mm | - | 0 W/m² | - |
| 1778139897 | 9.44° C | 85% | 1021.1 hPa | 1.27 mm | - | 0 W/m² | - |
| 1778139596 | 9.44° C | 86% | 1021.8 hPa | 1.78 mm | - | 0 W/m² | - |
| 1778139291 | 10° C | 83% | 1021.8 hPa | 4.83 mm | - | 0 W/m² | - |
| 1778138988 | 10° C | 83% | 1021.9 hPa | 7.87 mm | - | 0 W/m² | - |
| 1778138686 | 10° C | 80% | 1022 hPa | 6.6 mm | - | 0 W/m² | - |
| 1778138383 | 10.56° C | 80% | 1022 hPa | 1.78 mm | - | 0 W/m² | - |
* Rain latest hour (hover to see other rain measurements)
** Current wind speed in m/s (hover to see current wind gust speed)